This demonstration page uses our WeatherBlox Daily Observations layout. Learn more.

Hourly Observations for February 19, 2021

Temp ( °F °C ) Dew Point ( °F °C ) Humidity (%) Winds ( mph kmh ) Pressure ( in mb ) Visibility ( mi km ) Precip ( " mm )
12:15 am 00:15 Cloudy with Mist and Fog 27 -3 27 -3 100 100 NNE 5 7 30.23 1024 3 4.82802 0 0
12:35 am 00:35 Cloudy with Mist and Fog 27 -3 27 -3 100 100 NNE 5 7 30.23 1024 5 8.0467 0 0
12:55 am 00:55 Cloudy with Mist and Fog 28 -2 28 -2 100 100 NNE 5 7 30.23 1024 5 8.0467 0 0
1:15 am 01:15 Cloudy with Mist and Fog 28 -2 28 -2 100 100 NNE 6 9 30.21 1023 2.5 4.02335 0 0
1:35 am 01:35 Cloudy with Mist and Fog 27 -3 27 -3 100 100 NNE 6 9 30.21 1023 2.5 4.02335 0 0
1:55 am 01:55 Cloudy with Mist and Fog 27 -3 27 -3 100 100 NNE 8 13 30.22 1023 2.5 4.02335 0 0
2:15 am 02:15 Cloudy with Mist and Fog 27 -3 27 -3 100 100 NNE 6 9 30.22 1023 3 4.82802 0 0
2:35 am 02:35 Cloudy with Light Snow 27 -3 27 -3 100 100 NNE 6 9 30.21 1023 3 4.82802 0 0
2:55 am 02:55 Cloudy with Mist and Fog 27 -3 27 -3 100 100 NNE 5 7 30.19 1022 3 4.82802 0 0
3:15 am 03:15 Cloudy with Mist and Fog 27 -3 27 -3 100 100 NNE 6 9 30.2 1023 3 4.82802 0 0
3:35 am 03:35 Cloudy with Mist and Fog 27 -3 27 -3 100 100 N 6 9 30.19 1022 3 4.82802 0 0
3:55 am 03:55 Cloudy with Mist and Fog 27 -3 27 -3 100 100 NNE 5 7 30.19 1022 2.5 4.02335 0 0
4:15 am 04:15 Cloudy with Mist and Fog 27 -3 27 -3 100 100 NNE 6 9 30.17 1022 2.5 4.02335 0 0
4:35 am 04:35 Cloudy with Mist and Fog 27 -3 27 -3 100 100 NNE 5 7 30.18 1022 2 3.21868 0 0
4:55 am 04:55 Cloudy with Mist and Fog 27 -3 27 -3 100 100 N 5 7 30.18 1022 2.5 4.02335 0 0
5:15 am 05:15 Cloudy with Mist and Fog 27 -3 27 -3 100 100 NNE 5 7 30.19 1022 3 4.82802 0 0
5:35 am 05:35 Cloudy with Mist and Fog 27 -3 27 -3 100 100 NE 3 6 30.19 1022 3 4.82802 0 0
5:55 am 05:55 Cloudy with Mist and Fog 27 -3 27 -3 100 100 NNE 3 6 30.19 1022 3 4.82802 0 0
6:15 am 06:15 Cloudy with Mist and Fog 27 -3 27 -3 100 100 NNE 7 11 30.18 1022 2.5 4.02335 0 0
6:35 am 06:35 Cloudy with Mist and Fog 27 -3 27 -3 100 100 NNE 6 9 30.18 1022 3 4.82802 0 0
6:55 am 06:55 Cloudy with Mist and Fog 27 -3 27 -3 100 100 NNE 8 13 30.18 1022 5 8.0467 0 0
7:15 am 07:15 Cloudy with Mist and Fog 27 -3 27 -3 100 100 NNE 7 11 30.19 1022 5 8.0467 0 0
7:35 am 07:35 Cloudy 27 -3 27 -3 100 100 N 7 11 30.2 1023 7 11.26538 0 0
7:55 am 07:55 Cloudy 27 -3 27 -3 100 100 NNE 8 13 30.2 1023 7 11.26538 0 0
8:15 am 08:15 Cloudy with Light Snow 27 -3 27 -3 100 100 N 6 9 30.21 1023 7 11.26538 0 0
8:35 am 08:35 Cloudy with Light Snow 27 -3 27 -3 100 100 NE 7 11 30.19 1022 5 8.0467 0 0
8:55 am 08:55 Cloudy with Mist and Fog 27 -3 27 -3 100 100 NNE 3 6 30.19 1022 5 8.0467 0 0
9:15 am 09:15 Cloudy with Mist and Fog 27 -3 27 -3 100 100 NNE 6 9 30.19 1022 5 8.0467 0 0
9:35 am 09:35 Cloudy with Mist and Fog 27 -3 27 -3 100 100 NNE 5 7 30.19 1022 5 8.0467 0 0
9:55 am 09:55 Cloudy with Mist and Fog 27 -3 27 -3 100 100 NNE 3 6 30.2 1023 5 8.0467 0 0
10:15 am 10:15 Cloudy with Mist and Fog 28 -2 28 -2 100 100 N 5 7 30.21 1023 5 8.0467 0 0
10:35 am 10:35 Cloudy 28 -2 28 -2 100 100 N 6 9 30.2 1023 7 11.26538 0 0
10:55 am 10:55 Cloudy 28 -2 28 -2 100 100 NNE 8 13 30.18 1022 7 11.26538 0 0
11:15 am 11:15 Cloudy 28 -2 28 -2 100 100 N 5 7 30.18 1022 7 11.26538 0 0
11:35 am 11:35 Cloudy 28 -2 28 -2 100 100 N 5 7 30.18 1022 7 11.26538 0 0
11:55 am 11:55 Cloudy 30 -1 28 -2 93 93 N 6 9 30.16 1021 10 16.0934 0 0
12:15 pm 12:15 Cloudy 30 -1 28 -2 93 93 NE 6 9 30.15 1021 10 16.0934 0 0
12:35 pm 12:35 Cloudy 30 -1 30 -1 100 100 N 7 11 30.15 1021 10 16.0934 0 0
12:55 pm 12:55 Cloudy 32 0 30 -1 93 93 NNE 5 7 30.15 1021 10 16.0934 0 0
1:15 pm 13:15 Cloudy 32 0 30 -1 93 93 NNE 5 7 30.13 1020 10 16.0934 0 0
1:35 pm 13:35 Cloudy 32 0 30 -1 93 93 N 5 7 30.13 1020 10 16.0934 0 0
1:55 pm 13:55 Cloudy 32 0 30 -1 93 93 NNE 6 9 30.13 1020 10 16.0934 0 0
2:15 pm 14:15 Cloudy 32 0 30 -1 93 93 NNE 3 6 30.12 1020 10 16.0934 0.01 0.254
2:35 pm 14:35 Mostly Cloudy 34 1 30 -1 87 87 NNE 7 11 30.12 1020 10 16.0934 0.02 0.508
2:55 pm 14:55 Cloudy 34 1 30 -1 87 87 N 10 17 30.11 1020 10 16.0934 0.03 0.762
3:15 pm 15:15 Cloudy 34 1 30 -1 87 87 N 9 15 30.12 1020 10 16.0934 0 0
3:35 pm 15:35 Cloudy 34 1 30 -1 87 87 N 9 15 30.12 1020 10 16.0934 0 0
3:55 pm 15:55 Cloudy 34 1 30 -1 87 87 N 7 11 30.12 1020 10 16.0934 0 0
4:15 pm 16:15 Cloudy 34 1 30 -1 87 87 NNW 8 13 30.13 1020 10 16.0934 0 0
4:35 pm 16:35 Cloudy 34 1 30 -1 87 87 N 6 9 30.14 1021 10 16.0934 0 0
4:55 pm 16:55 Cloudy 34 1 30 -1 87 87 N 8 13 30.14 1021 10 16.0934 0 0
5:15 pm 17:15 Cloudy 34 1 30 -1 87 87 N 6 9 30.14 1021 10 16.0934 0 0
5:35 pm 17:35 Cloudy 34 1 30 -1 87 87 NNW 10 17 30.14 1021 10 16.0934 0 0
5:55 pm 17:55 Cloudy 34 1 28 -2 81 81 NNW 10 17 30.15 1021 10 16.0934 0 0
6:15 pm 18:15 Cloudy 34 1 27 -3 75 75 NNW 12 19 30.15 1021 10 16.0934 0 0
6:35 pm 18:35 Cloudy 34 1 25 -4 70 70 NNW 13 20 30.16 1021 10 16.0934 0 0
6:55 pm 18:55 Cloudy 34 1 25 -4 70 70 N 13 20 30.16 1021 10 16.0934 0 0
7:15 pm 19:15 Cloudy 34 1 25 -4 70 70 NNW 10 17 30.17 1022 10 16.0934 0 0
7:35 pm 19:35 Cloudy 34 1 25 -4 70 70 N 12 19 30.17 1022 10 16.0934 0 0
7:55 pm 19:55 Cloudy 34 1 25 -4 70 70 NNW 12 19 30.17 1022 10 16.0934 0 0
8:15 pm 20:15 Cloudy 34 1 25 -4 70 70 NNW 10 17 30.17 1022 10 16.0934 0 0
8:35 pm 20:35 Cloudy 32 0 23 -5 69 69 N 15 24 30.18 1022 10 16.0934 0 0
8:55 pm 20:55 Cloudy 32 0 23 -5 69 69 N 13 20 30.18 1022 10 16.0934 0 0
9:15 pm 21:15 Cloudy 32 0 25 -4 75 75 NNW 10 17 30.19 1022 10 16.0934 0 0
9:35 pm 21:35 Mostly Cloudy 32 0 23 -5 69 69 NNW 15 24 30.19 1022 10 16.0934 0 0
9:55 pm 21:55 Cloudy 32 0 23 -5 69 69 NNW 13 20 30.2 1023 10 16.0934 0 0
10:15 pm 22:15 Cloudy 32 0 23 -5 69 69 NNW 13 20 30.2 1023 10 16.0934 0 0
10:35 pm 22:35 Cloudy 32 0 23 -5 69 69 NNW 12 19 30.21 1023 10 16.0934 0 0
10:55 pm 22:55 Cloudy 32 0 23 -5 69 69 NNW 10 17 30.21 1023 10 16.0934 0 0
11:15 pm 23:15 Cloudy 32 0 23 -5 69 69 NNW 6 9 30.21 1023 10 16.0934 0 0
11:35 pm 23:35 Cloudy 32 0 21 -6 64 64 NNW 14 22 30.21 1023 10 16.0934 0 0
11:55 pm 23:55 Cloudy 30 -1 21 -6 69 69 NNW 13 20 30.21 1023 10 16.0934 0 0

Powered by AerisWeather